User: anonymous   Login
Location: Unspecified
(0.0000°N, 0.0000°E)
Time: 05:45:54
(UTC+00:00)
Language:

QIANFAN-79 - Orbit

View from above orbital plane
View from above orbital plane
View from above satellite
View from above satellite

Ground track
Ground track

The orbit is defined by the following mean orbital elements,

1 63165U          26145.54470325 +.00000000 +00000-0 +12182-3 0 00009
2 63165  88.9694 303.1222 0015127  22.5353 337.6459 13.51007252    09
Epoch (UTC): 25 May 2026 13:04:22
Eccentricity: 0.0015127
inclination: 88.9694°
perigee height: 1057 km
apogee height: 1080 km
right ascension of ascending node: 303.1222°
argument of perigee: 22.5353°
revolutions per day: 13.51007252
mean anomaly at epoch: 337.6459°

The dashed part of the orbit path shows where the satellite is in the earth's shadow,  

DLR